This demonstration page uses our WeatherBlox Daily Observations layout. Learn more.

Left ArrowRight Arrow

38.88101, -77.10428

Hourly Observations for July 29, 2021

Temp ( °F °C ) Dew Point ( °F °C ) Humidity (%) Winds ( mph kmh ) Pressure ( in mb ) Visibility ( mi km ) Precip ( " mm )
12:52 am 00:52 Mostly Cloudy 74 23.3 69 20.6 85 85 SSW 7 11 30.00 1016 10 16 0.00 0.00
1:52 am 01:52 Partly Cloudy 74 23.3 69 20.6 85 85 S 3 6 29.99 1016 10 16 N/A
2:52 am 02:52 Partly Cloudy 74 23.3 69 20.6 85 85 SSW 5 7 29.99 1016 10 16 N/A
3:52 am 03:52 Mostly Cloudy 74 23.3 69 20.6 85 85 SW 5 7 29.98 1015 10 16 N/A
4:42 am 04:42 Mostly Cloudy 74 23.3 70 21.1 88 88 S 3 6 29.97 1015 10 16 N/A
4:52 am 04:52 Mostly Cloudy 74 23.3 70 21.1 88 88 N N/A 29.98 1015 10 16 N/A
5:41 am 05:41 Mostly Cloudy 75 23.9 71 21.7 88 88 E 5 7 29.98 1015 10 16 N/A
5:52 am 05:52 Mostly Cloudy 75 23.9 71 21.7 88 88 VRB 3 6 29.99 1016 10 16 N/A
6:18 am 06:18 Cloudy 75 23.9 71 21.7 88 88 E 5 7 29.99 1016 10 16 N/A
6:25 am 06:25 Cloudy 75 23.9 71 21.7 88 88 E 5 7 29.99 1016 10 16 N/A
6:52 am 06:52 Cloudy 75 23.9 71 21.7 88 88 ESE 3 6 30.00 1016 10 16 N/A
7:18 am 07:18 Cloudy 75 23.9 71 21.7 88 88 SE 3 6 30.00 1016 10 16 N/A
7:52 am 07:52 Cloudy 76 24.4 72 22.2 88 88 SE 5 7 29.99 1016 8 13 N/A
8:30 am 08:30 Mostly Cloudy 77 25 73 22.8 88 88 SSW 5 7 29.98 1015 9 14 N/A
8:42 am 08:42 Mostly Cloudy 78 25.6 72 22.2 82 82 SW 6 9 29.99 1015 10 16 N/A
8:52 am 08:52 Mostly Cloudy 78 25.6 71 21.7 79 79 SSW 3 6 29.98 1015 10 16 N/A
9:02 am 09:02 Mostly Cloudy 78 25.6 73 22.8 85 85 N N/A 29.99 1015 10 16 N/A
9:41 am 09:41 Mostly Cloudy 80 26.7 73 22.8 79 79 SSE 6 9 29.99 1015 10 16 N/A
9:52 am 09:52 Mostly Cloudy 81 27.2 73 22.8 77 77 S 8 13 29.99 1016 10 16 N/A
10:52 am 10:52 Mostly Cloudy 81 27.2 72 22.2 74 74 S 10 17 29.98 1015 10 16 N/A
11:52 am 11:52 Mostly Cloudy 83 28.3 73 22.8 72 72 S 10 17 29.96 1015 10 16 N/A
12:52 pm 12:52 Mostly Cloudy 84 28.9 72 22.2 67 67 S 9 15 29.93 1014 10 16 N/A
1:52 pm 13:52 Cloudy 85 29.4 71 21.7 63 63 S 10 17 29.91 1013 10 16 N/A
2:52 pm 14:52 Cloudy 86 30 71 21.7 61 61 S 12 19 29.88 1012 10 16 N/A
3:52 pm 15:52 Cloudy 87 30.6 71 21.7 59 59 WSW 13 20 29.87 1012 10 16 N/A
4:52 pm 16:52 Mostly Sunny 85 29.4 73 22.8 68 68 S 13 20 29.82 1010 10 16 N/A
5:05 pm 17:05 Cloudy with Nearby Thunderstorms 84 28.9 73 22.8 70 70 S 13 20 29.82 1010 10 16 N/A
5:11 pm 17:11 Cloudy with Nearby Thunderstorms 84 28.9 73 22.8 70 70 S 13 20 29.82 1010 10 16 0.00 0.00
5:22 pm 17:22 Cloudy with Nearby Thunderstorms 83 28.3 74 23.3 74 74 SSW 13 20 29.82 1010 5 8 0.00 0.00
5:37 pm 17:37 Cloudy with Strong Thunderstorms 82 27.8 75 23.9 79 79 S 13 20 29.82 1010 3 4 0.10 2.54
5:42 pm 17:42 Cloudy with Thunderstorms 83 28.3 74 23.3 74 74 SSW 8 13 29.83 1010 5 8 0.19 4.83
5:52 pm 17:52 Cloudy with Nearby Thunderstorms 84 28.9 74 23.3 72 72 VRB 5 7 29.84 1011 10 16 0.19 4.83
6:12 pm 18:12 Cloudy with Light Rain 81 27.2 73 22.8 77 77 SSE 8 13 29.83 1010 10 16 0.00 0.00
6:52 pm 18:52 Mostly Cloudy 83 28.3 71 21.7 67 67 SW 9 15 29.83 1010 10 16 0.00 0.00
7:52 pm 19:52 Mostly Cloudy 81 27.2 70 21.1 69 69 SW 10 17 29.83 1010 10 16 N/A
8:52 pm 20:52 Mostly Cloudy 79 26.1 71 21.7 77 77 SW 7 11 29.81 1010 10 16 N/A
9:52 pm 21:52 Mostly Cloudy 79 26.1 72 22.2 79 79 SW 8 13 29.82 1010 10 16 N/A
10:52 pm 22:52 Mostly Cloudy 79 26.1 72 22.2 79 79 SSW 7 11 29.82 1010 10 16 N/A
11:52 pm 23:52 Cloudy 79 26.1 72 22.2 79 79 SW 6 9 29.81 1009 10 16 N/A

Powered by AerisWeather